Tracking 19717 objects as of 25-Jun-2019
HD Live streaming from Space Station
objects crossing your sky now

DIAMANT B-P4 DEB

Track DIAMANT B-P4 DEB now!
10-day predictions


NORAD ID: 7659
Int'l Code: 1975-010E
Perigee: 790.4 km
Apogee: 1,065.3 km
Inclination: 49.8 °
Period: 103.4 minutes
Semi major axis: 7298 km
RCS: 0.1434 m2 (medium)
Launch date: February 6, 1975
Source: France (FR)
Launch site: FRENCH GUIANA (FRGUI)

Note: This is SATELLITE DEBRIS
aabbcc
Your satellite tracking list
Your tracking list is empty




NASA's NSSDC Master Catalog

Two Line Element Set (TLE):
1  7659U 75010E   19175.58614122 -.00000079 +00000-0 +46942-4 0  9998
2  7659 049.8154 250.9928 0188320 036.5380 324.8197 13.92253843249988
Source of the keplerian elements: AFSPC